User: anonymous   Login
Location: Rounton
(54.4000°N, 1.3500°W)
Time: 23:50:29
(UTC+00:00)
Language:

deb Delta 126 - Orbit

View from above orbital plane
View from above orbital plane
View from above satellite
View from above satellite

Ground track
Ground track

The orbit data is extracted from the following two-line orbital elements,

1 10760U 76077BH  22341.47522647  .00001636  00000-0  85808-2 0  9997
2 10760 101.4704 179.6405 0544109  24.3784  35.8698 12.31146695473704
Epoch (UTC): 07 December 2022 11:24:19
Eccentricity: 0.0544109
inclination: 101.4704°
perigee height: 1113 km
apogee height: 1975 km
right ascension of ascending node: 179.6405°
argument of perigee: 24.3784°
revolutions per day: 12.31146695
mean anomaly at epoch: 35.8698°
orbit number at epoch: 47370

The dashed part of the orbit path shows where the satellite is in the earth's shadow,  

DLR